Regional Weather Roundup
Issued by NWS Charleston, WV

Home | Current Version | Previous Version | Text Only | Print | Product List | Glossary Off
Versions: 1 2 3 4 5 6 7 8 9 10 11 12 13 14 15 16 17 18 19 20 21 22 23 24 25 26 27 28 29 30 31 32 33 34 35 36 37 38 39 40 41 42 43 44 45 46 47 48 49 50

000
ASUS41 KRLX 222010
RWRRLX
West Virginia Regional Weather Roundup
National Weather Service Charleston WV
400 PM EDT FRI AUG 22 2014

Note: "fair" indicates few or no clouds below 12,000 feet with no
significant weather and/or obstructions to visibility.

WVZ003-222100-
Northern Panhandle of West Virginia

CITY           SKY/WX    TMP DP  RH WIND       PRES   REMARKS
WHEELING       MOSUNNY   82  71  69 SW7       29.97F
$$

WVZ009-222100-
Northwest West Virginia

CITY           SKY/WX    TMP DP  RH WIND       PRES   REMARKS
PARKERSBURG    PTSUNNY   81  71  71 SW7       30.01R
$$

WVZ006-222100-
Western West Virginia

CITY           SKY/WX    TMP DP  RH WIND       PRES   REMARKS
HUNTINGTON     PTSUNNY   80  76  87 MISG      29.98F
$$

WVZ015-222100-
West Central West Virginia

CITY           SKY/WX    TMP DP  RH WIND       PRES   REMARKS
CHARLESTON     CLOUDY    81  75  82 CALM      29.99F THUNDER
$$

WVZ031-222100-
North Central West Virginia

CITY           SKY/WX    TMP DP  RH WIND       PRES   REMARKS
CLARKSBURG     CLOUDY    78  69  73 SW9       30.00S
MORGANTOWN     MOSUNNY   82  69  64 VRB7      29.99F
$$

WVZ035-042-045-222100-
South Central West Virginia

CITY           SKY/WX    TMP DP  RH WIND       PRES   REMARKS
BECKLEY        LGT RAIN  71  68  90 S3        30.10F
BLUEFIELD      CLOUDY    80  67  64 NW3       30.12F
LEWISBURG      PTSUNNY   78  70  76 W5        30.09F
$$

WVZ047-222100-
Northern Mountains of West Virginia

CITY           SKY/WX    TMP DP  RH WIND       PRES   REMARKS
ELKINS         PTSUNNY   77  67  71 SW5       30.05S
$$

WVZ052-222100-
Eastern Panhandle of West Virginia

CITY           SKY/WX    TMP DP  RH WIND       PRES   REMARKS
MARTINSBURG    MOSUNNY   82  65  56 S5        29.98F
PETERSBURG     NOT AVBL
$$


USA.gov is the U.S. government's official web portal to all federal, state and local government web resources and services.